{"data":{"norad_id":64546,"epoch":"2026-09-21T21:27:12.594528Z","epoch_age_seconds":61090,"freshness":"FRESH","line1":"1 64546U 25135U   26264.89389577  .00006799  00000+0  26974-3 0  9998","line2":"2 64546  97.4763  20.4699 0001467 126.0658 234.0716 15.25691840 69648","mean_motion":15.2569184,"eccentricity":0.0001467,"inclination_deg":97.4763,"raan_deg":20.4699,"arg_perigee_deg":126.0658,"mean_anomaly_deg":234.0716,"bstar":0.00026974,"rev_number":6964,"period_min":94.383411003889,"perigee_km":487.70139013952,"apogee_km":489.71612268445,"semimajor_km":6866.845756412,"source":"CELESTRAK","updated_at":"2026-09-22T09:00:29.842880Z"}}